Weather History for KDEN - October, 2013

Change the Weather History Date:

Monday, October 7, 2013

  Actual Average Record
Temperature  
Mean Temperature 60 °F 54 °F  
Max Temperature 77 °F 69 °F 87 °F (1934)
Min Temperature 42 °F 40 °F 23 °F (1970)
Degree Days  
Heating Degree Days 5 11  
Month to date heating degree days 90 69  
Since 1 July heating degree days 173 210  
Cooling Degree Days 0 0  
Month to date cooling degree days 0 1  
Year to date cooling degree days 999 765  
Growing Degree Days 10 (Base 50)    
Moisture  
Dew Point 30 °F    
Average Humidity 46    
Maximum Humidity 76    
Minimum Humidity 16    
Precipitation  
Precipitation 0.00 in 0.04 in 0.77 in (1957)
Month to date precipitation 0.25 0.26  
Year to date precipitation 16.61 12.58  
Snow  
Snow 0.00 in - - ()
Month to date snowfall T  
Since 1 July snowfall T  
Since 1 September snowfall T  
Snow Depth 0.00 in    
Sea Level Pressure  
Sea Level Pressure 29.95 in    
Wind  
Wind Speed 10 mph (South)    
Max Wind Speed 17 mph    
Max Gust Speed 21 mph    
Visibility 10 miles    
Events      
T = Trace of Precipitation, MM = Missing Value Source: NWS Daily Summary

Daily Weather History Graph

Daily Weather History Graph

Search for Another Location

Airport or City:

Trip Planner

Search our weather history database for the weather conditions in past years. The results will help you decide how hot, cold, wet, or windy it might be!

Date:

Astronomy

Oct. 07, 2013 Rise Set
Actual Time 7:01 AM MDT 6:30 PM MDT
Civil Twilight 6:34 AM MDT 6:57 PM MDT
Nautical Twilight 6:02 AM MDT 7:29 PM MDT
Astronomical Twilight 5:31 AM MDT 8:00 PM MDT
Moon 9:53 AM MDT (10/7) 8:18 PM MDT (10/7)
Length of Visible Light 12h 23m
Length of Day
11h 29m
Waxing Crescent, 9% of the Moon is Illuminated
Oct 7
Waxing Crescent
Oct 11
First Quarter
Oct 18
Full
Oct 26
Last Quarter
Nov 3
New

Hourly Weather History & Observations

Time (MDT) Temp. Windchill Dew Point Humidity Pressure Visibility Wind Dir Wind Speed Gust Speed Precip Events Conditions
12:53 AM 42.1 °F 36.6 °F 35.1 °F 76% 30.10 in 10.0 mi South 9.2 mph - N/A   Clear
1:53 AM 46.9 °F - 33.1 °F 59% 30.07 in 10.0 mi South 10.4 mph - N/A   Clear
2:53 AM 48.9 °F - 30.0 °F 48% 30.04 in 10.0 mi SSW 11.5 mph - N/A   Clear
3:53 AM 48.9 °F - 27.0 °F 43% 30.03 in 10.0 mi SSW 16.1 mph - N/A   Clear
4:53 AM 46.0 °F 40.6 °F 28.0 °F 50% 30.04 in 10.0 mi WSW 11.5 mph - N/A   Clear
5:53 AM 43.0 °F 36.8 °F 28.9 °F 58% 30.06 in 10.0 mi WSW 11.5 mph - N/A   Clear
6:53 AM 44.1 °F 38.1 °F 28.0 °F 53% 30.06 in 10.0 mi SW 11.5 mph - N/A   Partly Cloudy
7:53 AM 46.9 °F - 28.9 °F 50% 30.08 in 10.0 mi SW 12.7 mph - N/A   Clear
8:53 AM 54.0 °F - 30.0 °F 40% 30.08 in 10.0 mi SW 11.5 mph - N/A   Partly Cloudy
9:53 AM 61.0 °F - 32.0 °F 34% 30.05 in 10.0 mi SW 10.4 mph - N/A   Partly Cloudy
10:53 AM 66.0 °F - 30.9 °F 27% 30.02 in 10.0 mi SW 8.1 mph - N/A   Partly Cloudy
11:53 AM 69.1 °F - 26.1 °F 20% 29.99 in 10.0 mi SSW 3.5 mph - N/A   Partly Cloudy
12:53 PM 73.0 °F - 27.0 °F 18% 29.95 in 10.0 mi SE 4.6 mph - N/A   Partly Cloudy
1:53 PM 75.0 °F - 28.0 °F 18% 29.90 in 10.0 mi SE 3.5 mph - N/A   Partly Cloudy
2:53 PM 75.9 °F - 27.0 °F 16% 29.86 in 10.0 mi SSE 5.8 mph - N/A   Partly Cloudy
3:53 PM 75.9 °F - 28.0 °F 17% 29.84 in 10.0 mi SE 8.1 mph - N/A   Partly Cloudy
4:53 PM 73.9 °F - 30.0 °F 20% 29.84 in 10.0 mi SE 9.2 mph - N/A   Partly Cloudy
5:53 PM 68.0 °F - 33.1 °F 27% 29.86 in 10.0 mi ESE 8.1 mph - N/A   Scattered Clouds
6:53 PM 60.1 °F - 30.9 °F 33% 29.88 in 10.0 mi SSE 8.1 mph - N/A   Scattered Clouds
7:53 PM 55.9 °F - 36.0 °F 47% 29.88 in 10.0 mi South 12.7 mph - N/A   Scattered Clouds
8:53 PM 55.0 °F - 34.0 °F 45% 29.86 in 10.0 mi South 12.7 mph - N/A   Scattered Clouds
9:53 PM 59.0 °F - 30.0 °F 33% 29.82 in 10.0 mi South 13.8 mph - N/A   Mostly Cloudy
10:53 PM 55.0 °F - 30.9 °F 40% 29.79 in 10.0 mi SSW 12.7 mph - N/A   Mostly Cloudy
11:53 PM 57.9 °F - 28.9 °F 33% 29.76 in 10.0 mi SSW 13.8 mph - N/A   Scattered Clouds